7 * 24
多渠道服务支持
STARLINK-30243是美国SpaceX公司星链星座的低轨通信卫星,于2023年8月17日发射入轨。它属于星链星座的组网卫星,采用平板设计搭配太阳电池阵,重量约227kg,搭载Ku/Ka波段通信载荷,以氪工质霍尔推进器实现轨道维持与离轨,设计寿命5-7年,服务全球宽带互联网覆盖,退役后会坠入大气层销毁。
美国
(US)
| 数据来源 | 国际轨道数据 |
| 星历时间: | 2026-09-03T12:48:41+0800 1天前 查看轨道信息 |
| 半长轴: | 6861.202km |
| 偏心率: | 0.0001368 |
| 轨道倾角: | 43.002° |
| 近地点辐角 | 260.668° |
| 升交点赤经 | 170.124° |
| 平近点角 | 99.402° |
| 近地点: | 482.126km |
| 远地点: | 484.004km |
| 周期: | 94.267分钟 |
| 每日圈数: | 15.275749 |
| 事件ID | 空间交会对象 | 最接近时刻(TCA) | 交会距离 | 交会风险概率(CRP) | 交会风险指数(CRI) | 操作 |
|---|---|---|---|---|---|---|
| CDM_260905-045305-764806-400721 |
STARLINK-30243
(57648)
STARLINK-33759
(64007) | 2026-09-05T 04:53:52+0000 |
1.188 km
极远距离 | 9.385196E-6 低风险 | 0.54 | |
| CDM_260902-221505-322005-764821 |
STARLINK-4363
(53220)
STARLINK-30243
(57648) | 2026-09-02T 22:15:16+0000 |
1.405 km
极远距离 | 7.745823E-6 低风险 | 0.53 | |
| CDM_260905-062805-764806-400721 |
STARLINK-30243
(57648)
STARLINK-33759
(64007) | 2026-09-05T 06:28:01+0000 |
1.430 km
极远距离 | 5.014234E-6 低风险 | 0.49 | |
| CDM_260904-083105-696405-764822 |
AFR-1
(56964)
STARLINK-30243
(57648) | 2026-09-04T 08:31:07+0000 |
2.102 km
极远距离 | 2.40052E-6 低风险 | 0.43 | |
| CDM_260905-140105-301705-764821 |
STARLINK-4281
(53017)
STARLINK-30243
(57648) | 2026-09-05T 14:01:21+0000 |
2.215 km
极远距离 | 1.889542E-6 低风险 | 0.41 | |
| CDM_260905-073505-764806-795921 |
STARLINK-30243
(57648)
STARLINK-36834
(67959) | 2026-09-05T 07:35:39+0000 |
2.352 km
极远距离 | 1.35058E-6 低风险 | 0.38 | |
| CDM_260905-010905-764806-342421 |
STARLINK-30243
(57648)
STARLINK-33655
(63424) | 2026-09-05T 01:09:59+0000 |
1.641 km
极远距离 | 1.188043E-6 低风险 | 0.36 | |
| CDM_260905-090905-764806-795921 |
STARLINK-30243
(57648)
STARLINK-36834
(67959) | 2026-09-05T 09:09:48+0000 |
2.644 km
极远距离 | 1.105263E-6 低风险 | 0.36 | |
| CDM_260904-233505-764806-342421 |
STARLINK-30243
(57648)
STARLINK-33655
(63424) | 2026-09-04T 23:35:50+0000 |
2.087 km
极远距离 | 6.739657E-7 极低风险 | 0.32 | |
| CDM_260905-002205-764806-342421 |
STARLINK-30243
(57648)
STARLINK-33655
(63424) | 2026-09-05T 00:22:54+0000 |
2.252 km
极远距离 | 5.831725E-7 极低风险 | 0.3 |